Location: Newark
(48.0000°N, 67.0000°E)
Time: 15:04:47
(UTC+00:00)

A-11 Canister half - Pass Details

Date: 26 February 2020
Orbit: 1516 x 1683 km, 47.2° (Epoch: 08 April)

Event Time Altitude Azimuth Distance (km) Brightness Sun altitude
Rises 14:27:07 0° 280° (W) 4,883 13.6 -13.5°
Reaches altitude 10° 14:30:18 10° 279° (W) 3,876 12.5 -14.1°
Maximum altitude 14:40:09 79° 195° (SSW) 1,624 9.1 -15.7°
Enters shadow 14:47:14 21° 112° (ESE) 2,989 9.9 -16.9°
